Location: Innerarity Island Observatory
(30.3139°N, 87.4867°W)
Time: 13:12:30
(UTC-05:00)

JAS-2 - Visible Passes

Search period start: 18 April 2014 00:00
Search period end: 28 April 2014 00:00
Orbit: 799 x 1323 km, 98.5° (Epoch: 17 April)

Date Brightness Start Highest point End Pass type
(mag) Time Alt. Az. Time Alt. Az. Time Alt. Az.
18 Apr 11.6 20:18:41 10° SSW 20:23:42 26° W 20:28:19 10° NW visible
20 Apr 11.4 20:13:44 10° SSW 20:18:48 28° W 20:23:28 10° NW visible
22 Apr 11.3 20:08:47 10° SSW 20:13:53 30° W 20:18:36 10° NW visible
24 Apr 11.1 20:03:50 10° SSW 20:08:58 32° W 20:13:44 10° NW visible
26 Apr 11.0 19:58:53 10° SSW 20:04:02 34° W 20:08:50 10° NW visible
